CP2829 SABE-SAZM

Flight info

Callsign CP2829
Flight time 0h 35m
Altitude 35000
Route PTA8 GBE UW29 VOTRA VOTRA1U
Aircraft C700/M-SBDGHM1RWXY/LB2

Departure

Time 2026-05-08 02:12
Airport Aeroparque Jorge Newbery (SABE)

Arrival

Time 2026-05-08 02:48
Airport Ástor Piazzola International Airport (SAZM)
Time Latitude Longitude Altitude Speed Heading
2026-05-08 01:51 -34.56237 -58.41327 23 ft 0 kts 214°
2026-05-08 01:54 -34.56237 -58.41326 21 ft 0 kts 214°
2026-05-08 02:08 -34.56244 -58.41332 23 ft 4 kts 214°
2026-05-08 02:08 -34.56282 -58.41329 24 ft 9 kts 119°
2026-05-08 02:08 -34.56331 -58.41236 23 ft 17 kts 125°
2026-05-08 02:08 -34.56400 -58.41112 23 ft 18 kts 123°
2026-05-08 02:09 -34.56468 -58.40986 21 ft 18 kts 123°
2026-05-08 02:09 -34.56536 -58.40863 21 ft 18 kts 123°
2026-05-08 02:09 -34.56536 -58.40816 23 ft 6 kts 353°
2026-05-08 02:09 -34.56485 -58.40791 21 ft 11 kts 65°
2026-05-08 02:10 -34.56448 -58.40680 21 ft 12 kts 47°
2026-05-08 02:10 -34.56437 -58.40672 19 ft 0 kts 24°
2026-05-08 02:10 -34.56428 -58.40675 19 ft 4 kts 335°
2026-05-08 02:11 -34.56408 -58.40707 22 ft 8 kts 305°
2026-05-08 02:11 -34.56376 -58.40763 21 ft 7 kts 303°
2026-05-08 02:11 -34.56351 -58.40811 23 ft 6 kts 302°
2026-05-08 02:11 -34.56329 -58.40853 22 ft 5 kts 309°
2026-05-08 02:12 -34.56296 -58.40904 21 ft 15 kts 306°
2026-05-08 02:12 -34.56072 -58.41311 22 ft 106 kts 305°
2026-05-08 02:12 -34.55479 -58.42308 268 ft 175 kts 304°
2026-05-08 02:12 -34.54595 -58.43669 801 ft 234 kts 304°
2026-05-08 02:13 -34.53389 -58.44863 1303 ft 219 kts 333°
2026-05-08 02:13 -34.51956 -58.44945 1906 ft 195 kts 359°
2026-05-08 02:13 -34.50767 -58.44432 2495 ft 171 kts 27°
2026-05-08 02:13 -34.49890 -58.43482 3072 ft 184 kts 51°
2026-05-08 02:14 -34.49325 -58.41943 3711 ft 219 kts 81°
2026-05-08 02:14 -34.49426 -58.39990 4404 ft 246 kts 112°
2026-05-08 02:14 -34.50021 -58.37951 4998 ft 279 kts 114°
2026-05-08 02:14 -34.50685 -58.35553 5033 ft 315 kts 111°
2026-05-08 02:15 -34.51353 -58.32957 5027 ft 329 kts 111°
2026-05-08 02:15 -34.52057 -58.30295 6051 ft 331 kts 111°
2026-05-08 02:15 -34.52816 -58.27631 7933 ft 341 kts 114°
2026-05-08 02:15 -34.54026 -58.25095 9671 ft 354 kts 127°
2026-05-08 02:16 -34.55701 -58.22864 11448 ft 363 kts 140°
2026-05-08 02:16 -34.57790 -58.21077 13240 ft 372 kts 149°
2026-05-08 02:16 -34.60012 -58.19358 14645 ft 389 kts 148°
2026-05-08 02:16 -34.62322 -58.17544 16082 ft 397 kts 148°
2026-05-08 02:17 -34.64662 -58.15717 17774 ft 403 kts 147°
2026-05-08 02:17 -34.67045 -58.13849 18924 ft 414 kts 146°
2026-05-08 02:17 -34.69501 -58.11921 22071 ft 426 kts 146°
2026-05-08 02:17 -34.72029 -58.09944 22965 ft 438 kts 146°
2026-05-08 02:18 -34.74618 -58.07909 23876 ft 448 kts 146°
2026-05-08 02:18 -34.77274 -58.05816 24773 ft 459 kts 146°
2026-05-08 02:18 -34.79944 -58.03702 25620 ft 470 kts 146°
2026-05-08 02:18 -34.82704 -58.01511 26434 ft 477 kts 145°
2026-05-08 02:19 -34.85511 -57.99274 27205 ft 486 kts 144°
2026-05-08 02:19 -34.88356 -57.96999 28065 ft 492 kts 144°
2026-05-08 02:19 -34.91232 -57.94691 28872 ft 499 kts 144°
2026-05-08 02:19 -34.94157 -57.92334 29644 ft 507 kts 144°
2026-05-08 02:20 -34.97134 -57.89936 30289 ft 517 kts 143°
2026-05-08 02:20 -35.00148 -57.87496 31116 ft 523 kts 143°
2026-05-08 02:20 -35.03192 -57.85025 31933 ft 530 kts 143°
2026-05-08 02:20 -35.06273 -57.82512 32611 ft 536 kts 143°
2026-05-08 02:21 -35.09384 -57.79967 33274 ft 541 kts 143°
2026-05-08 02:21 -35.12523 -57.77390 33904 ft 546 kts 143°
2026-05-08 02:21 -35.15687 -57.74783 32231 ft 551 kts 143°
2026-05-08 02:21 -35.18916 -57.72202 32825 ft 558 kts 149°
2026-05-08 02:22 -35.22562 -57.70527 33392 ft 564 kts 168°
2026-05-08 02:22 -35.26404 -57.69846 34420 ft 553 kts 175°
2026-05-08 02:22 -35.30235 -57.69466 34581 ft 549 kts 178°
2026-05-08 02:22 -35.34019 -57.69227 34577 ft 541 kts 179°
2026-05-08 02:23 -35.41501 -57.68236 34583 ft 542 kts 172°
2026-05-08 02:23 -35.48990 -57.67121 34573 ft 541 kts 177°
2026-05-08 02:24 -35.56429 -57.66184 34571 ft 541 kts 174°
2026-05-08 02:24 -35.63905 -57.65082 34555 ft 542 kts 175°
2026-05-08 02:25 -35.71515 -57.64089 34569 ft 550 kts 174°
2026-05-08 02:25 -35.79139 -57.62992 34573 ft 551 kts 175°
2026-05-08 02:26 -35.86778 -57.61964 34574 ft 551 kts 175°
2026-05-08 02:26 -35.94380 -57.60889 34574 ft 550 kts 175°
2026-05-08 02:27 -36.01988 -57.59844 34569 ft 552 kts 175°
2026-05-08 02:27 -36.09627 -57.58771 34568 ft 552 kts 175°
2026-05-08 02:28 -36.17250 -57.57712 34561 ft 550 kts 175°
2026-05-08 02:28 -36.24886 -57.56641 34556 ft 554 kts 174°
2026-05-08 02:29 -36.32543 -57.55571 34557 ft 553 kts 174°
2026-05-08 02:29 -36.40189 -57.54495 34554 ft 553 kts 174°
2026-05-08 02:30 -36.47778 -57.53428 34555 ft 553 kts 174°
2026-05-08 02:30 -36.55436 -57.52349 34554 ft 553 kts 174°
2026-05-08 02:31 -36.63073 -57.51269 34548 ft 550 kts 174°
2026-05-08 02:31 -36.70702 -57.50191 34545 ft 552 kts 174°
2026-05-08 02:32 -36.78335 -57.49108 34541 ft 551 kts 174°
2026-05-08 02:32 -36.85993 -57.48019 34539 ft 554 kts 174°
2026-05-08 02:33 -36.93638 -57.46931 34481 ft 553 kts 174°
2026-05-08 02:33 -36.97420 -57.46391 34250 ft 554 kts 174°
2026-05-08 02:33 -37.01252 -57.45843 34022 ft 556 kts 174°
2026-05-08 02:34 -37.05120 -57.45292 33118 ft 564 kts 174°
2026-05-08 02:34 -37.08832 -57.44758 31582 ft 516 kts 174°
2026-05-08 02:34 -37.12330 -57.44256 30127 ft 497 kts 174°
2026-05-08 02:34 -37.15720 -57.43774 28558 ft 482 kts 174°
2026-05-08 02:35 -37.19074 -57.43293 26987 ft 498 kts 174°
2026-05-08 02:35 -37.22537 -57.42793 25486 ft 500 kts 174°
2026-05-08 02:35 -37.25983 -57.42297 24082 ft 497 kts 175°
2026-05-08 02:35 -37.29401 -57.41808 22663 ft 491 kts 175°
2026-05-08 02:36 -37.32680 -57.41335 21086 ft 448 kts 174°
2026-05-08 02:36 -37.35700 -57.40897 19606 ft 435 kts 174°
2026-05-08 02:36 -37.38638 -57.40477 18176 ft 416 kts 173°
2026-05-08 02:36 -37.41457 -57.40071 16645 ft 399 kts 173°
2026-05-08 02:37 -37.44161 -57.39675 15127 ft 383 kts 174°
2026-05-08 02:37 -37.46727 -57.39304 13682 ft 357 kts 175°
2026-05-08 02:37 -37.49055 -57.38964 12165 ft 319 kts 175°
2026-05-08 02:37 -37.51232 -57.38656 10662 ft 316 kts 175°
2026-05-08 02:38 -37.53394 -57.38346 9212 ft 302 kts 174°
2026-05-08 02:38 -37.55429 -57.38046 7671 ft 289 kts 174°
2026-05-08 02:38 -37.57400 -57.37760 6220 ft 281 kts 175°
2026-05-08 02:38 -37.59385 -57.37477 5284 ft 287 kts 175°
2026-05-08 02:39 -37.61307 -57.37201 5026 ft 270 kts 176°
2026-05-08 02:39 -37.63140 -57.36930 4767 ft 262 kts 176°
2026-05-08 02:39 -37.64331 -57.36757 4596 ft 260 kts 176°
2026-05-08 02:39 -37.66126 -57.36494 4340 ft 258 kts 176°
2026-05-08 02:40 -37.68479 -57.36154 3995 ft 256 kts 175°
2026-05-08 02:40 -37.69677 -57.35977 3820 ft 255 kts 176°
2026-05-08 02:40 -37.71423 -57.35726 3790 ft 253 kts 176°
2026-05-08 02:40 -37.73179 -57.35470 3768 ft 255 kts 176°
2026-05-08 02:41 -37.74920 -57.35217 3736 ft 255 kts 176°
2026-05-08 02:41 -37.76702 -57.34957 3716 ft 254 kts 175°
2026-05-08 02:41 -37.78447 -57.34701 3687 ft 253 kts 175°
2026-05-08 02:41 -37.80178 -57.34448 3662 ft 253 kts 176°
2026-05-08 02:42 -37.81919 -57.34202 3635 ft 253 kts 176°
2026-05-08 02:42 -37.83666 -57.33940 3613 ft 251 kts 175°
2026-05-08 02:42 -37.85411 -57.33682 3578 ft 254 kts 175°
2026-05-08 02:42 -37.87168 -57.33428 3450 ft 253 kts 176°
2026-05-08 02:43 -37.88910 -57.33175 3325 ft 252 kts 176°
2026-05-08 02:43 -37.90661 -57.32919 3140 ft 255 kts 176°
2026-05-08 02:43 -37.92413 -57.32710 2929 ft 251 kts 181°
2026-05-08 02:43 -37.94127 -57.33013 2672 ft 249 kts 195°
2026-05-08 02:44 -37.95724 -57.33808 2414 ft 246 kts 209°
2026-05-08 02:44 -37.97140 -57.35010 2165 ft 242 kts 217°
2026-05-08 02:44 -37.98292 -57.36455 1905 ft 231 kts 231°
2026-05-08 02:44 -37.99129 -57.38147 1715 ft 221 kts 243°
2026-05-08 02:45 -37.99636 -57.39955 1699 ft 213 kts 254°
2026-05-08 02:45 -37.99829 -57.41793 1699 ft 215 kts 264°
2026-05-08 02:45 -37.99715 -57.43703 1704 ft 220 kts 277°
2026-05-08 02:45 -37.99271 -57.45573 1705 ft 220 kts 289°
2026-05-08 02:46 -37.98531 -57.47276 1603 ft 226 kts 298°
2026-05-08 02:46 -37.97691 -57.48889 1413 ft 187 kts 298°
2026-05-08 02:46 -37.97036 -57.50172 1182 ft 165 kts 296°
2026-05-08 02:46 -37.96469 -57.51296 1008 ft 146 kts 297°
2026-05-08 02:47 -37.95954 -57.52253 838 ft 124 kts 298°
2026-05-08 02:47 -37.95489 -57.53205 714 ft 136 kts 296°
2026-05-08 02:47 -37.94995 -57.54224 557 ft 131 kts 293°
2026-05-08 02:47 -37.94549 -57.55140 334 ft 115 kts 301°
2026-05-08 02:48 -37.94106 -57.55996 153 ft 119 kts 301°
2026-05-08 02:48 -37.93662 -57.56838 49 ft 98 kts 300°
2026-05-08 02:48 -37.93449 -57.57272 45 ft 34 kts 301°
2026-05-08 02:48 -37.93317 -57.57533 45 ft 38 kts 302°
2026-05-08 02:49 -37.93175 -57.57814 46 ft 35 kts 303°
2026-05-08 02:49 -37.93132 -57.57948 48 ft 12 kts 252°
2026-05-08 02:49 -37.93204 -57.58020 48 ft 15 kts 215°
2026-05-08 02:49 -37.93241 -57.58053 48 ft 1 kts 250°
2026-05-08 02:50 -37.93238 -57.58061 44 ft 4 kts 301°
2026-05-08 02:50 -37.93226 -57.58088 48 ft 0 kts 298°
2026-05-08 02:50 -37.93225 -57.58088 48 ft 0 kts 298°